Theta_e
306 307 309 310 308 307 309 309 309 309 308 303 299 300 293 290 287 299 305 306 303 295 286 289 286 285 288 291 287 290 287 285 287 286 285 283 283 282 284 285 286 285 287 286 286 287 284 286 285 287 288 289 292 292 296 297 296 298 295 299 299 297 289 286 288 288 290 292 292 294 295 298 296 294 291 295 292 293 291 290 290 287 287 286 282 280 287
304 305 305 306 307 307 308 310 309 309 308 303 300 295 291 291 290 293 303 306 302 291 281 280 284 286 288 288 286 287 286 288 286 287 285 284 280 282 282 282 288 287 288 288 285 288 281 286 287 286 288 288 294 292 295 297 294 296 294 294 299 290 287 290 285 285 286 288 288 289 291 293 294 293 294 296 296 296 289 284 284 286 288 288 285 281 287
303 303 303 304 304 305 306 307 309 309 309 304 300 292 291 290 291 288 289 302 299 287 289 286 285 286 285 286 285 286 285 286 290 289 287 282 280 282 283 285 285 285 287 287 288 289 287 282 288 288 287 288 288 292 294 297 295 298 298 299 301 293 291 289 283 280 278 279 280 282 285 286 291 295 295 295 295 294 290 288 287 285 288 288 286 286 292
303 303 303 303 303 303 304 304 303 303 304 304 299 294 291 288 282 284 285 287 294 292 290 288 287 286 285 284 286 287 284 285 287 289 286 283 282 281 283 283 286 283 286 284 286 286 289 285 281 286 285 285 287 291 294 296 295 297 298 298 298 288 291 290 289 287 284 287 288 292 294 290 288 291 293 294 295 296 295 292 289 286 289 287 289 290 291
303 302 302 303 303 303 303 303 303 304 303 301 295 290 290 289 283 283 280 285 285 286 287 287 288 285 288 283 286 283 285 285 286 289 285 285 285 283 284 284 286 282 285 285 285 287 287 286 282 286 287 288 287 290 294 296 296 297 297 298 295 285 287 289 289 290 290 290 285 290 293 290 293 292 292 294 294 294 292 290 288 293 288 284 289 291 289
303 303 303 302 302 303 302 302 302 301 302 302 295 286 286 283 284 286 287 283 280 283 283 288 287 288 288 285 287 285 284 285 283 287 286 287 284 284 283 281 285 288 287 287 284 285 286 287 283 286 287 286 287 289 290 293 295 295 293 295 294 287 287 290 290 289 291 292 286 285 288 291 291 292 293 293 294 293 290 291 294 293 288 286 291 292 290
302 302 303 304 303 303 303 302 302 302 301 300 293 285 285 287 286 286 288 281 283 287 288 288 288 287 288 286 287 285 285 284 287 285 284 284 284 287 283 283 284 284 287 287 285 286 282 283 287 286 285 287 287 287 289 292 294 294 293 294 292 287 285 289 290 288 289 290 289 286 284 286 289 291 291 293 293 292 293 293 295 294 292 293 293 292 292
302 302 303 303 303 303 304 303 302 303 302 298 290 286 286 284 285 282 286 287 285 286 287 287 287 284 288 285 285 286 285 284 284 283 286 282 284 285 284 285 285 285 285 287 286 287 288 288 286 288 287 286 288 287 290 287 292 295 292 293 294 291 286 290 287 285 286 288 289 288 287 288 287 290 292 294 294 293 292 293 294 294 293 294 293 292 292
301 301 302 302 302 303 303 303 303 302 300 291 289 287 289 289 289 289 286 284 284 286 286 286 285 283 284 284 285 287 286 285 285 283 286 286 285 285 284 286 282 285 285 284 286 290 289 288 290 289 289 287 290 289 286 292 289 292 292 292 290 292 287 289 287 284 284 287 287 287 287 287 287 287 289 291 292 290 292 291 294 292 290 292 292 290 291
300 301 301 301 302 302 303 302 302 301 301 290 288 286 289 289 290 289 288 282 286 284 285 284 284 280 283 284 285 286 286 287 287 283 285 286 288 287 287 286 286 284 284 284 286 288 288 290 288 289 292 289 283 283 285 288 291 290 291 292 290 289 288 286 286 284 283 287 287 286 287 286 283 284 288 290 292 294 294 296 296 296 296 292 289 291 297
300 300 301 301 301 301 302 302 301 300 295 289 287 286 287 288 287 287 287 283 281 283 284 282 282 283 283 284 283 285 285 285 286 284 282 286 287 288 288 287 286 284 285 288 291 294 293 294 291 292 295 293 290 289 287 286 287 288 292 287 285 288 288 287 289 283 284 287 285 286 284 278 280 292 295 294 291 292 291 292 295 297 297 295 297 297 299
300 300 300 300 300 300 300 301 301 299 296 291 291 288 289 288 287 286 284 282 278 281 282 279 282 282 283 283 284 283 284 284 285 286 285 284 285 287 288 288 288 282 288 293 296 296 296 296 294 293 292 291 290 287 287 285 285 288 290 289 286 286 286 286 287 285 284 285 285 283 277 279 293 295 295 297 296 296 294 295 296 297 299 298 297 298 298
300 299 299 300 300 299 299 300 301 299 297 293 292 288 289 289 286 285 284 282 276 278 279 278 281 283 283 284 283 283 284 284 286 286 287 286 285 286 286 286 286 288 293 295 296 294 289 286 286 286 286 287 286 286 285 286 287 288 290 290 287 286 286 285 283 283 284 281 282 277 278 288 289 292 296 297 298 297 295 293 296 298 298 299 297 299 300
300 300 299 299 299 299 299 299 300 300 298 295 290 289 289 288 285 284 283 280 276 279 280 279 280 281 283 283 283 282 283 283 283 284 284 285 286 286 287 287 289 291 294 295 290 289 283 281 280 280 279 280 279 281 284 286 287 288 287 288 287 287 285 283 283 286 281 281 283 282 288 285 286 287 289 293 290 291 291 287 291 297 299 299 298 299 300
299 299 300 299 298 298 298 298 299 299 298 295 290 289 289 288 287 285 283 284 278 278 279 278 279 280 281 280 281 281 282 282 284 282 281 283 286 286 288 289 289 292 293 291 284 282 280 279 276 276 279 276 271 273 280 278 284 287 288 287 288 287 285 283 282 280 284 282 280 282 281 279 284 288 289 298 298 298 298 294 291 298 300 301 299 298 300
299 299 299 299 299 298 298 298 298 298 298 296 290 288 288 289 287 287 284 283 283 276 277 281 281 281 281 280 282 282 280 280 280 279 279 280 280 284 286 284 285 291 289 285 283 281 276 277 276 276 274 274 274 275 274 278 282 285 286 287 288 288 288 285 283 283 283 280 278 279 279 282 288 286 290 295 297 297 296 291 287 296 299 300 300 299 300
298 298 299 299 299 298 298 298 298 298 297 295 287 288 287 289 287 285 284 282 280 277 282 282 281 281 280 280 282 280 281 280 279 276 274 279 282 280 282 284 286 289 288 285 284 277 275 272 272 271 272 275 273 272 276 275 279 281 285 286 285 285 285 284 282 281 281 281 280 278 282 282 285 288 290 292 296 298 294 283 283 296 299 300 300 299 300
297 298 298 298 299 299 298 298 297 297 297 296 290 287 286 289 287 285 285 282 278 276 282 283 280 279 279 279 279 280 280 280 279 277 277 275 275 278 278 279 283 286 288 285 280 275 273 271 275 271 273 276 279 278 272 277 277 280 280 282 281 282 283 284 280 281 281 282 280 283 283 286 284 286 289 292 297 295 286 281 290 296 299 300 300 300 301
297 297 297 298 298 298 298 298 297 297 297 295 288 288 288 288 287 286 284 281 279 277 282 282 283 282 282 281 280 279 280 281 279 277 272 275 278 278 278 277 283 280 282 280 278 274 277 275 274 268 273 275 277 273 276 275 276 281 283 280 281 283 283 284 283 280 278 280 280 280 284 287 285 285 292 295 293 284 284 295 294 295 295 298 299 299 300
296 297 297 297 298 298 298 298 297 297 297 297 291 285 284 287 287 284 282 277 277 278 280 281 282 282 283 281 280 279 279 280 278 277 272 273 276 278 278 276 279 277 276 279 279 276 275 275 278 276 273 272 275 279 273 271 280 281 281 284 281 282 281 280 280 282 283 282 279 280 276 286 289 291 289 292 289 287 295 292 293 293 292 292 292 297 299
295 296 297 297 297 297 297 298 298 296 296 296 293 284 285 287 286 286 284 281 278 276 277 282 281 282 281 282 282 282 280 280 279 278 279 279 280 274 268 270 275 277 278 274 277 280 279 275 273 271 275 277 279 278 273 273 276 280 283 281 280 285 280 278 281 284 278 280 279 279 286 287 289 295 290 291 295 290 288 288 289 289 288 289 290 291 294
294 294 295 296 297 297 297 297 298 296 296 296 293 284 283 284 283 285 285 284 276 272 279 283 282 282 284 283 283 283 285 284 284 281 280 276 278 278 274 275 274 277 281 282 276 274 276 275 276 275 277 275 275 275 274 272 272 275 280 280 276 283 282 281 277 282 283 281 284 288 286 287 291 292 290 291 294 292 290 289 289 288 290 286 289 291 292
293 293 294 294 295 296 296 297 297 296 296 295 290 281 282 281 283 286 282 280 278 281 281 280 279 280 281 285 285 285 283 284 284 283 282 279 274 277 277 275 275 281 284 285 283 282 280 276 276 278 276 275 277 275 275 275 274 275 277 282 281 283 284 282 282 281 282 284 285 288 287 286 289 291 290 292 294 293 292 291 291 290 290 290 290 291 291
292 292 292 293 294 295 295 296 296 296 296 296 291 282 281 281 284 283 280 279 271 270 275 277 274 271 275 279 281 283 286 285 286 284 284 283 278 272 276 279 283 279 277 282 285 282 280 280 281 282 277 276 275 274 276 275 276 275 278 279 280 281 284 285 281 282 282 279 286 288 289 288 286 292 293 292 292 291 290 292 292 292 292 291 289 288 289
291 291 291 292 292 293 294 295 295 296 295 294 290 286 284 282 280 280 274 270 271 266 268 269 271 279 280 281 282 282 282 284 286 285 285 284 281 279 277 281 281 280 280 282 282 281 277 277 276 277 277 281 281 276 275 275 276 278 278 278 279 282 283 284 283 281 283 283 284 285 287 288 288 289 289 290 291 291 289 290 291 291 291 290 290 287 288
291 291 291 291 291 292 292 293 294 295 295 294 291 280 279 279 281 281 281 278 270 268 267 266 270 277 279 280 279 282 283 284 283 284 284 284 283 283 281 282 282 280 280 281 280 278 273 273 272 273 273 274 280 277 275 278 276 281 279 279 282 281 286 280 281 283 282 284 286 288 285 286 288 288 287 289 291 291 291 291 292 291 290 291 291 288 289
290 291 291 291 291 291 291 292 293 293 295 293 285 280 279 278 280 282 278 273 268 268 268 266 266 271 276 279 281 281 283 282 282 282 283 283 284 283 283 281 280 279 279 275 276 274 269 270 269 271 271 271 273 272 276 275 278 276 277 281 282 283 281 284 283 280 281 282 285 282 281 283 285 284 289 290 290 290 291 292 291 292 291 291 291 292 291
290 290 290 291 291 291 291 291 291 293 294 292 286 280 277 278 279 280 278 279 275 269 266 264 267 273 275 274 280 279 280 283 281 281 280 281 282 281 281 280 279 279 277 276 270 272 269 270 271 270 269 269 273 272 273 274 277 274 276 280 283 283 283 282 280 282 282 286 288 285 287 287 289 289 288 288 290 290 290 291 292 292 292 290 289 290 292
290 290 290 290 290 291 290 291 291 292 293 286 276 277 278 280 282 284 282 281 277 270 267 270 270 264 266 272 280 279 276 280 281 280 280 280 280 280 280 279 279 278 278 276 275 271 268 271 275 272 270 276 274 270 273 270 270 272 276 281 282 284 286 286 287 286 287 289 289 285 285 288 289 286 287 289 291 291 291 292 292 292 291 291 291 292 292
290 290 290 290 290 290 290 290 291 291 290 277 275 270 268 275 279 281 285 281 276 274 272 272 268 268 271 273 270 275 279 280 279 280 279 278 279 279 280 279 278 281 279 277 276 271 275 273 272 276 277 279 274 270 270 269 269 274 279 279 281 283 284 286 288 286 287 291 289 286 286 288 289 288 290 291 291 291 292 293 292 292 292 291 291 292 291
290 290 290 290 289 289 289 289 290 291 288 274 273 268 263 264 275 283 288 278 276 280 277 276 270 273 266 271 275 274 276 279 277 277 278 278 279 279 280 280 278 281 276 277 278 278 276 270 273 273 278 282 278 272 269 269 268 270 279 280 281 282 283 284 286 287 288 289 290 287 285 288 290 289 289 291 292 290 288 290 291 290 291 290 290 290 288
290 290 290 290 290 290 290 289 289 290 279 277 272 270 269 273 279 282 287 285 283 278 271 266 267 265 265 270 267 272 276 277 277 277 278 280 275 279 276 281 278 281 281 277 279 280 278 279 275 273 274 281 281 270 270 271 272 274 279 279 280 282 283 283 284 285 286 287 287 285 286 287 289 287 288 291 290 289 291 292 293 293 291 289 285 282 282
290 290 290 290 290 290 290 290 290 291 278 283 294 292 291 292 292 289 288 282 281 274 273 268 265 268 264 263 269 271 274 274 271 274 271 278 273 277 273 276 277 277 285 280 276 275 281 279 280 277 279 280 276 277 275 273 275 279 280 280 279 281 282 284 284 285 285 287 287 284 284 286 287 288 287 290 290 292 292 292 293 290 288 287 288 288 287
289 289 289 290 290 290 289 290 290 292 289 279 273 274 279 292 291 290 281 278 274 274 270 268 268 266 267 269 265 270 276 272 269 272 268 273 272 276 272 276 279 278 281 278 279 275 275 277 275 276 277 277 281 277 274 277 280 280 281 281 281 281 281 281 282 283 284 286 286 287 289 290 290 287 286 287 288 288 287 288 288 288 288 288 288 289 287
289 289 289 289 289 289 289 290 281 280 275 276 275 277 280 291 292 291 284 272 268 271 272 271 272 267 267 263 264 266 272 274 269 270 269 270 279 273 274 275 278 274 275 283 277 277 276 276 279 274 274 280 277 274 276 278 279 280 281 281 282 282 281 280 280 282 283 284 284 284 285 285 285 286 287 288 288 289 289 289 289 288 288 288 289 288 284
289 289 289 289 289 289 283 282 276 273 272 275 272 286 289 290 291 281 278 274 275 270 270 272 273 268 269 263 261 265 277 271 271 271 272 271 270 273 272 272 273 277 282 279 275 280 276 281 278 273 280 275 273 277 278 280 279 280 280 280 282 281 281 281 282 282 282 283 282 283 284 284 284 284 286 287 287 288 288 288 289 287 287 288 288 288 285
288 288 289 287 279 277 270 270 279 275 273 277 284 292 290 288 283 283 281 279 279 277 272 271 271 271 272 268 267 269 274 267 270 266 267 270 270 275 275 275 271 278 279 277 278 276 279 285 277 275 276 274 276 281 281 281 280 280 280 282 283 283 282 282 282 282 281 281 281 281 281 282 284 285 286 286 287 288 287 287 288 288 287 288 288 288 287
289 288 276 273 271 269 267 268 268 273 289 289 289 279 275 279 275 278 279 276 277 279 273 274 271 271 272 272 268 276 273 266 268 267 266 269 274 270 277 277 274 278 271 276 278 283 277 276 276 275 276 280 282 282 282 282 282 283 283 283 284 283 282 281 281 281 279 280 281 281 281 280 282 283 284 285 286 287 287 288 289 289 289 288 288 286 283
284 274 271 269 269 267 268 268 278 287 284 284 275 272 273 274 274 273 273 276 276 271 276 274 271 275 273 271 272 278 273 268 264 263 266 270 272 269 278 271 279 279 273 274 274 283 272 275 277 276 274 278 279 281 281 279 280 280 274 268 265 266 267 269 271 277 282 283 283 283 282 283 284 285 285 284 285 286 287 287 287 286 285 285 283 280 281
270 269 269 270 270 271 277 279 286 285 281 276 270 267 264 269 272 268 274 269 270 273 275 269 274 273 275 273 272 270 278 269 266 264 264 266 275 266 271 271 272 273 268 272 276 283 273 272 275 275 273 277 279 269 258 264 263 263 263 264 264 264 265 265 267 268 268 269 270 268 269 270 271 272 273 275 276 278 281 282 281 281 280 280 280 280 281
268 269 269 268 271 268 271 273 272 272 273 271 267 267 267 267 267 267 269 268 267 268 272 272 271 269 272 271 269 267 273 275 270 268 268 266 274 277 271 268 277 270 268 268 276 276 275 274 274 273 275 266 258 258 260 259 260 261 262 262 263 264 264 264 265 266 266 267 269 269 268 267 269 270 271 272 273 274 277 279 279 278 276 276 276 276 275
274 272 267 267 271 273 272 272 272 272 269 270 267 264 265 266 268 266 267 265 266 266 262 267 267 266 265 268 269 272 271 275 272 276 274 270 278 273 271 273 274 270 267 272 274 273 275 272 273 275 263 253 260 258 258 257 258 258 259 260 262 263 264 264 264 264 265 265 265 265 266 266 266 267 266 266 268 270 273 274 274 273 273 272 271 271 272
286 282 278 268 270 269 271 268 269 269 266 265 265 262 264 261 264 265 266 267 263 260 263 264 264 270 269 266 266 270 270 277 274 274 273 271 278 277 272 272 272 268 271 275 273 271 271 271 273 270 254 256 256 257 256 256 257 257 259 260 260 262 263 264 264 264 264 264 264 264 264 264 264 264 264 266 267 267 268 268 269 269 269 269 269 270 272
279 276 270 266 268 267 268 264 269 266 263 261 262 260 259 259 260 259 261 260 260 259 261 257 260 262 259 263 261 264 267 271 275 272 272 275 273 271 272 269 270 274 274 271 270 270 271 272 265 256 255 256 255 256 255 256 256 257 257 259 259 261 263 264 265 265 264 265 265 265 265 264 264 265 266 266 266 267 267 267 268 268 268 269 269 269 270
271 268 266 267 264 265 265 262 263 260 259 260 265 258 258 258 255 255 256 258 258 259 262 260 259 259 260 262 264 264 268 264 273 270 268 272 269 271 269 269 271 268 269 269 269 271 270 271 256 253 255 253 255 254 255 255 256 256 257 257 259 259 260 262 263 263 264 264 264 264 264 265 265 264 264 265 266 267 267 267 268 268 268 268 268 268 268
265 265 264 263 262 262 258 255 254 256 258 259 258 255 253 251 252 255 257 259 258 260 259 261 261 262 259 263 261 262 266 267 266 268 271 270 268 267 271 273 272 269 269 270 269 269 271 263 254 255 255 254 254 255 254 255 256 257 256 256 257 258 259 260 262 263 263 263 264 264 264 264 263 263 263 264 265 265 266 267 267 267 268 267 267 267 268
264 263 259 259 259 256 254 255 255 255 254 253 252 253 256 257 256 259 261 261 259 262 262 262 262 263 260 261 262 263 263 265 264 269 272 267 267 270 274 269 267 268 266 265 266 269 265 257 257 256 255 254 254 254 254 255 255 256 255 256 257 257 259 260 261 262 262 263 263 263 263 263 263 263 264 263 264 264 265 266 266 267 267 266 267 267 267
261 261 260 261 258 255 258 255 253 255 254 256 255 252 256 259 259 258 259 260 261 262 259 261 259 261 261 265 265 262 264 266 264 266 269 269 271 268 268 268 268 270 269 268 268 259 255 256 255 254 253 254 254 253 253 254 255 255 256 256 257 257 258 259 260 261 261 261 261 261 261 261 261 261 261 262 262 262 264 265 266 266 266 266 265 265 265
259 255 258 254 253 254 255 255 254 257 256 252 253 256 255 257 257 258 261 260 259 259 260 259 260 262 260 264 261 262 260 266 263 265 270 267 265 264 266 265 266 266 264 256 256 255 255 254 253 253 252 252 253 253 254 254 255 255 256 256 256 258 259 260 260 261 261 261 260 260 261 261 261 261 261 261 260 260 262 264 265 265 265 265 264 263 263
256 255 254 251 255 256 252 252 254 254 250 251 253 255 255 256 256 257 260 258 259 259 261 264 264 262 261 263 261 262 262 266 266 267 265 263 265 263 261 259 263 264 259 253 255 255 255 254 253 251 252 252 253 253 253 254 255 255 256 257 258 259 260 260 260 261 261 260 260 260 260 260 259 259 259 258 259 260 260 261 262 263 263 264 264 263 263
254 253 251 251 255 255 254 257 254 253 254 254 254 255 256 255 255 257 259 258 257 257 257 258 260 258 259 260 259 259 263 268 265 263 264 263 260 258 261 264 261 252 252 254 253 253 253 253 252 251 252 252 253 253 254 255 255 255 256 257 258 260 260 261 260 260 260 260 260 260 259 259 260 260 260 260 260 259 258 258 259 260 260 261 261 260 259
252 254 255 252 250 249 251 253 253 253 254 252 252 253 255 255 255 256 259 258 256 256 257 260 261 260 259 259 262 264 265 264 263 262 259 259 258 258 258 256 254 254 254 252 253 253 252 251 250 251 250 251 252 253 253 255 255 255 256 257 258 259 260 261 261 261 261 261 261 261 261 261 261 261 261 261 260 258 256 256 257 257 257 257 257 257 257
Wind_Speed
26 26 15 16 15 11 14 22 26 27 35 17 9 7 9 6 4 2 22 19 21 16 9 10 11 9 9 6 4 4 1 3 3 5 1 3 1 2 3 6 6 4 7 7 8 12 7 13 12 7 14 13 18 7 18 13 12 13 7 8 9 4 4 6 10 3 4 8 5 4 3 8 12 8 3 9 14 16 16 13 9 13 10 11 7 10 17
25 23 22 23 19 17 14 21 25 30 30 12 10 9 6 5 4 6 12 21 16 15 13 13 13 9 4 8 5 4 2 7 6 8 6 4 3 5 5 1 6 5 6 5 10 14 5 8 14 10 7 11 12 8 11 17 10 14 9 12 11 9 5 9 8 8 3 8 5 6 2 1 11 15 15 14 15 16 3 2 2 7 12 14 11 19 14
21 22 23 21 21 19 20 15 25 32 23 14 10 7 5 6 4 4 4 11 16 16 10 12 13 15 14 14 11 8 2 4 11 12 9 2 3 4 3 4 4 1 2 8 6 12 15 4 14 10 9 9 4 10 13 18 13 14 10 15 10 15 7 14 17 16 13 15 15 12 10 12 5 9 15 13 16 20 10 15 6 12 10 15 12 14 19
22 22 21 19 19 20 19 18 17 15 14 17 7 5 7 5 8 1 1 4 12 5 5 2 12 14 13 12 13 12 7 1 4 8 6 4 3 2 3 2 3 4 5 6 7 8 10 9 4 13 8 5 3 8 15 17 14 18 17 13 13 5 5 11 14 16 20 15 6 3 3 3 11 12 17 21 21 24 22 15 15 18 13 15 17 20 20
22 21 22 21 18 17 17 16 13 12 16 9 7 4 2 2 3 6 4 3 3 9 5 6 6 13 14 13 10 14 15 5 1 1 5 5 6 2 3 5 8 4 10 12 10 12 13 6 2 13 16 12 3 4 14 14 17 18 14 14 9 3 11 18 17 20 18 8 6 2 8 12 15 19 24 24 24 21 20 17 19 16 13 18 9 15 16
24 22 20 18 18 17 15 14 12 10 8 6 3 7 2 5 2 2 2 2 10 12 8 12 12 8 14 8 8 15 14 9 8 2 3 4 3 7 2 2 7 11 17 13 12 12 12 14 12 3 10 6 1 2 4 11 16 18 7 5 8 7 16 19 18 24 22 20 5 4 1 6 11 16 17 23 22 21 22 24 25 20 17 21 21 20 21
25 24 23 22 19 16 13 11 11 8 5 6 3 7 1 1 2 2 2 3 1 12 18 22 18 15 17 7 12 14 17 16 11 5 4 4 4 8 12 11 15 9 8 13 12 15 12 13 11 9 7 15 8 7 0 8 8 13 9 13 6 2 9 9 14 18 20 20 13 3 4 2 3 10 14 16 18 21 22 23 24 23 18 17 20 17 21
24 24 23 22 22 19 14 10 6 7 7 5 8 3 5 3 4 3 1 4 6 9 11 10 12 11 17 12 12 14 18 18 7 1 8 8 9 1 11 12 10 10 10 14 17 16 20 18 18 10 11 10 10 8 10 3 7 12 14 7 9 14 12 14 10 9 16 16 13 8 8 9 11 8 8 13 16 18 19 18 20 19 19 19 20 21 20
23 24 23 22 22 21 18 13 8 10 7 6 4 2 2 0 1 0 8 8 3 7 8 11 11 9 4 11 10 11 18 17 10 4 1 9 11 7 13 10 5 5 9 7 11 10 10 6 9 5 9 15 8 9 4 5 8 12 11 8 3 12 11 7 8 12 14 13 14 16 11 10 15 16 13 12 13 17 18 20 20 19 22 24 25 21 19
23 23 23 22 23 22 20 18 14 7 8 5 2 3 1 1 0 2 1 6 1 7 5 4 9 7 3 2 7 8 18 13 12 4 2 4 4 5 8 11 12 6 7 14 13 9 7 5 5 3 4 6 5 2 2 2 9 11 13 5 10 9 8 9 9 13 16 15 12 15 14 11 14 18 16 16 17 15 13 18 19 20 16 17 18 21 24
21 22 22 22 23 23 22 20 19 14 5 6 4 2 1 2 2 1 2 10 4 2 7 2 4 1 3 1 4 4 9 9 6 15 5 3 4 5 6 9 9 6 12 8 5 12 12 9 9 5 6 4 5 3 2 5 4 1 8 5 1 8 12 12 9 14 12 16 9 7 8 20 21 9 20 22 21 20 21 20 22 25 20 17 17 20 18
21 22 22 22 22 22 22 20 19 19 10 3 4 4 1 1 4 3 1 10 2 1 2 3 3 2 6 3 3 3 7 8 4 1 8 2 3 4 8 9 5 3 2 3 9 8 10 11 9 7 5 3 1 3 4 4 6 0 3 5 8 9 9 9 6 11 14 7 10 10 21 16 1 2 9 18 20 13 16 19 21 23 21 20 21 21 23
21 21 21 21 21 22 22 20 19 18 12 5 7 6 0 2 3 4 4 6 4 1 7 2 2 5 6 9 6 3 5 1 2 6 3 6 3 3 3 6 7 2 6 9 10 10 7 6 5 4 3 3 0 1 1 3 3 3 3 2 4 10 11 5 4 2 2 6 13 13 7 3 5 6 14 15 12 15 11 15 19 20 21 22 25 30 33
21 21 21 21 20 20 20 20 18 17 16 9 10 4 2 1 3 4 3 7 2 3 3 7 5 8 10 9 9 4 5 5 3 3 4 1 6 4 2 3 3 4 7 8 7 8 5 2 3 2 1 1 1 0 4 5 6 5 5 4 1 3 4 4 6 4 10 5 8 9 3 2 2 3 3 10 11 11 16 14 18 27 28 25 23 27 28
20 21 21 20 20 19 20 20 17 16 15 11 7 7 8 7 3 5 1 6 6 1 3 7 3 4 7 5 5 7 5 3 6 3 2 1 2 1 2 0 2 6 7 6 2 3 3 3 2 4 2 3 3 4 1 1 3 8 7 4 4 5 5 3 5 5 3 7 8 5 7 16 6 7 4 11 15 17 18 16 18 12 16 18 18 25 31
18 20 20 21 20 18 18 19 18 17 15 11 9 6 8 6 1 4 5 7 10 6 2 2 0 2 5 4 1 9 7 5 3 2 3 3 1 2 1 2 1 2 1 2 2 5 3 5 4 6 6 5 2 2 2 2 2 3 4 5 4 2 2 4 2 2 4 4 4 7 10 7 5 7 6 8 6 7 10 5 15 18 15 17 23 28 29
16 17 19 20 20 17 17 17 18 18 18 14 6 7 9 9 6 3 6 6 7 5 1 2 1 2 5 5 4 4 2 6 5 6 3 2 0 2 5 5 1 2 2 2 1 2 2 1 1 1 0 3 3 4 1 2 3 2 5 7 7 6 4 3 4 4 2 2 4 5 2 2 2 2 1 3 7 9 9 9 11 20 9 12 14 23 28
16 16 17 18 20 19 17 15 14 14 15 16 11 7 6 9 6 1 6 6 7 3 3 0 3 4 2 3 5 0 3 3 4 3 4 1 1 1 3 4 1 3 1 3 0 3 2 2 5 2 3 2 1 3 2 4 5 4 7 8 5 6 4 6 9 8 8 8 2 2 4 5 3 4 3 3 5 7 12 14 13 1 12 15 16 19 22
19 17 16 17 19 19 18 16 16 15 12 9 3 8 10 9 10 6 7 5 5 5 3 3 0 3 1 2 2 2 0 2 3 7 2 2 0 0 0 1 1 2 4 4 3 2 3 1 1 1 2 1 1 4 1 3 5 1 6 7 3 3 2 2 4 5 5 4 6 6 4 5 3 2 9 7 7 8 10 10 1 1 1 8 13 17 17
19 19 17 16 17 18 18 17 15 15 15 15 10 7 2 7 7 5 4 6 4 6 0 3 1 3 1 3 4 3 2 6 2 6 5 4 2 2 3 2 3 2 2 2 2 1 4 3 2 1 1 1 2 3 1 3 1 6 4 4 3 8 6 6 6 3 1 2 4 3 5 2 3 7 2 3 6 6 4 4 6 0 1 1 4 9 11
18 18 19 17 16 16 17 18 17 14 13 11 7 5 6 8 8 8 5 8 9 10 2 2 2 2 2 5 3 1 3 4 3 5 1 3 2 2 5 4 1 1 1 1 5 2 3 2 1 1 3 3 4 2 3 1 1 5 4 4 4 4 4 2 5 4 5 6 7 5 2 1 3 8 8 6 9 3 0 4 8 7 3 5 4 4 5
16 16 17 17 17 15 14 16 16 16 13 12 9 4 6 4 4 5 4 6 8 5 4 2 1 2 0 1 1 1 4 4 1 3 6 2 3 2 3 4 2 2 1 1 3 2 3 0 1 1 1 2 1 3 1 1 1 1 1 2 1 5 6 3 3 3 4 4 5 6 5 6 6 3 1 3 6 6 1 1 4 5 8 2 3 5 7
14 15 15 16 16 16 15 14 15 15 14 10 8 5 5 1 4 4 3 9 3 4 3 3 1 2 2 1 0 1 1 1 3 4 3 5 2 2 3 2 1 1 1 1 1 2 1 3 2 1 1 1 5 2 1 4 2 0 3 4 3 2 1 1 1 2 3 4 3 4 3 1 1 5 5 5 7 9 7 7 9 7 8 6 7 7 7
12 13 13 14 15 15 15 14 14 14 14 12 7 6 2 1 1 1 5 5 5 4 2 4 3 2 3 2 3 3 0 1 0 1 1 1 4 0 2 2 1 2 2 1 2 2 1 1 1 1 1 3 2 1 4 4 4 2 1 4 1 2 0 1 1 2 2 5 7 11 14 7 4 6 7 8 6 6 6 12 12 12 12 12 8 8 9
12 11 11 12 13 14 14 14 13 14 13 9 6 4 4 4 4 3 3 3 3 4 4 2 3 1 1 3 1 0 2 1 1 1 1 1 2 3 3 1 1 3 4 1 2 5 4 1 1 1 3 4 3 4 1 2 6 1 4 5 1 6 1 2 5 4 6 9 7 6 8 7 5 4 5 7 10 9 8 9 11 12 11 9 11 5 7
13 12 11 10 11 12 13 14 13 13 13 13 9 4 4 2 1 3 6 6 4 4 5 2 1 2 2 1 0 1 0 2 2 1 2 1 1 2 1 1 0 4 3 2 4 3 2 0 0 1 2 6 1 1 1 5 2 0 3 6 4 3 1 4 3 3 5 7 12 13 5 6 10 9 7 8 8 9 10 10 11 10 8 11 10 6 9
11 12 13 12 9 10 11 12 13 12 13 10 6 4 4 0 1 5 4 2 2 3 5 1 2 6 2 2 2 1 0 3 2 3 2 1 1 1 2 1 0 1 3 2 1 2 2 2 2 5 4 4 1 2 0 3 1 3 4 6 2 0 6 3 1 4 7 8 11 2 1 7 7 5 10 11 11 10 11 11 10 11 12 10 9 11 7
9 10 10 12 11 9 9 9 10 11 11 9 6 5 2 3 2 1 3 4 5 4 3 0 2 4 0 1 1 0 1 1 3 3 3 1 1 2 3 3 2 2 2 2 1 1 2 5 7 3 2 2 0 5 3 1 1 3 7 10 5 7 6 3 5 6 10 13 15 4 5 7 11 9 6 5 6 6 9 11 12 12 11 8 7 8 11
9 8 8 9 10 11 9 9 9 9 9 6 4 5 5 5 6 5 4 2 7 5 4 1 1 4 2 2 5 5 2 2 2 3 3 2 3 2 3 3 4 3 2 3 2 2 2 3 2 4 3 5 5 4 4 4 6 11 16 16 9 9 7 6 9 7 11 14 14 4 3 10 10 4 6 7 7 8 11 12 12 11 11 10 8 9 9
8 8 7 6 6 8 9 8 7 7 8 6 5 5 5 3 5 4 5 1 3 4 4 2 2 3 2 2 5 2 2 0 1 2 2 3 3 4 5 4 2 2 1 2 4 3 2 0 2 3 2 1 2 2 3 3 5 10 14 11 10 13 13 14 12 11 15 17 9 2 6 9 9 5 8 10 10 8 10 12 11 11 10 8 9 11 7
8 7 7 7 5 4 5 7 8 7 9 6 5 4 3 1 4 5 5 1 1 5 2 3 1 1 3 2 1 4 3 0 1 1 2 3 3 3 3 2 0 4 2 1 0 3 0 3 3 3 3 8 3 2 5 2 4 5 14 14 14 15 16 17 17 15 17 19 17 6 3 11 14 10 13 18 18 7 6 8 11 11 12 10 11 9 9
8 7 6 6 6 6 6 5 5 6 6 7 3 2 2 2 2 3 2 1 3 6 3 2 3 4 2 3 2 1 0 0 1 1 0 2 1 3 2 6 5 5 4 3 3 2 7 8 3 2 2 8 8 2 3 4 10 15 21 12 10 13 13 15 15 16 14 17 14 11 14 18 18 16 17 17 9 6 10 14 14 13 12 8 6 6 6
8 7 6 5 6 6 6 5 4 5 1 2 2 7 8 8 8 4 4 2 7 1 2 5 2 0 1 3 4 4 3 1 2 1 2 1 2 2 1 2 2 1 6 3 4 5 3 5 5 9 9 3 3 2 7 12 16 22 25 19 10 11 13 12 12 11 12 14 10 13 17 18 19 10 5 9 10 12 13 15 15 9 8 9 10 10 9
8 7 6 5 5 4 4 3 5 6 10 5 2 2 3 3 6 6 3 6 3 1 2 3 2 2 4 3 4 4 1 1 2 1 1 1 1 3 2 3 5 4 6 8 4 2 3 3 7 5 3 6 7 6 10 15 20 23 23 20 17 15 13 12 11 13 15 17 14 13 17 17 13 7 8 10 11 10 7 8 9 10 13 12 12 13 10
7 7 7 5 4 4 6 6 5 4 1 1 1 4 3 2 6 5 2 0 3 1 3 1 2 1 2 3 1 5 0 1 2 1 0 2 1 4 2 2 3 3 5 4 2 5 5 7 4 4 8 6 8 8 10 18 24 22 20 21 23 18 10 10 14 18 19 16 15 12 10 10 11 13 16 17 15 11 11 12 12 10 12 14 15 13 7
6 6 5 4 7 5 3 5 3 2 2 1 3 4 4 4 1 3 4 3 2 1 2 1 2 2 3 1 2 3 1 1 1 1 3 1 2 1 2 3 3 8 2 5 5 7 8 5 5 9 8 8 12 12 17 20 25 23 20 22 23 15 10 13 14 12 10 10 13 14 14 13 15 18 17 18 18 16 15 14 16 12 14 16 16 13 7
4 6 10 7 5 5 3 0 2 1 4 4 4 12 13 9 4 3 4 2 1 2 3 2 3 5 4 5 0 6 3 2 2 2 1 1 4 0 2 1 4 3 4 5 6 8 12 6 5 8 9 12 16 18 21 16 15 17 19 18 17 14 12 12 11 10 11 12 13 11 10 12 15 14 15 15 17 15 12 13 17 16 17 19 17 14 11
9 10 5 3 4 3 2 2 1 3 5 8 8 4 6 5 2 1 0 1 2 2 1 1 5 0 2 4 4 4 4 3 3 1 4 2 1 2 2 3 5 3 6 6 10 9 1 3 8 10 15 16 17 15 14 13 16 16 18 19 19 15 12 10 9 10 11 15 16 16 12 9 12 12 12 13 13 15 15 15 16 15 15 16 15 10 5
10 4 5 3 4 2 3 1 5 6 2 4 5 2 2 1 2 1 1 1 1 1 2 4 6 5 5 5 4 2 3 2 5 1 2 4 1 4 2 4 4 4 6 6 6 10 4 7 8 9 14 15 15 19 11 8 10 10 8 8 8 8 8 8 5 7 14 17 18 14 9 13 14 16 11 10 10 11 12 13 13 13 13 12 10 6 6
3 2 1 2 2 4 4 4 6 2 2 1 2 3 0 1 2 2 1 1 1 1 2 3 2 4 8 10 7 5 3 3 5 6 5 5 1 3 3 2 2 3 6 5 3 6 5 8 7 8 16 12 16 0 12 9 9 8 10 10 11 9 7 7 8 7 8 11 9 6 3 4 3 7 8 7 7 9 11 11 9 10 9 10 7 7 10
2 3 2 1 4 1 1 1 3 3 1 1 1 1 1 1 1 0 1 2 1 1 1 1 3 2 1 1 3 5 2 1 2 2 2 4 4 2 3 5 3 5 5 6 1 1 2 6 8 14 13 2 3 8 9 8 7 9 9 11 13 11 11 10 9 8 8 11 10 8 5 4 5 6 6 5 6 8 10 11 10 9 7 7 7 6 1
7 5 3 3 2 1 1 3 2 1 2 0 2 0 1 1 1 2 1 2 3 0 2 1 1 1 1 1 1 2 3 1 1 0 3 5 5 6 4 3 2 7 6 3 2 3 4 12 13 14 0 4 6 8 9 10 9 12 12 12 13 13 12 11 11 9 5 8 9 8 6 5 6 6 4 4 5 6 8 8 9 6 5 4 2 1 2
9 8 5 3 2 2 0 1 1 1 1 1 1 1 0 0 2 2 2 0 1 2 1 1 0 1 1 2 1 2 2 2 1 3 3 4 2 1 4 4 4 8 5 2 4 4 12 12 14 6 4 3 7 9 9 9 11 10 10 10 10 11 13 13 12 11 8 7 7 7 6 5 6 5 4 4 4 6 3 1 3 2 2 1 1 1 0
3 2 3 2 2 1 0 1 0 1 1 1 1 2 1 1 3 1 0 1 0 0 0 1 2 2 1 1 1 2 1 1 4 0 4 2 2 4 3 6 7 4 3 3 3 11 12 8 3 0 2 4 5 7 11 10 11 11 11 10 13 13 12 12 11 10 10 7 6 6 4 5 5 3 2 1 2 2 1 0 1 1 0 0 0 0 1
3 2 2 1 1 1 1 1 2 2 2 2 2 2 3 5 5 5 5 1 1 3 1 2 3 3 1 4 1 1 2 2 3 1 4 3 4 5 5 4 0 1 2 11 7 9 7 10 3 3 4 9 8 9 9 10 10 10 12 14 12 12 13 13 12 10 9 7 8 7 6 4 2 1 0 1 2 3 1 1 1 1 1 3 2 2 2
1 3 1 3 2 1 1 0 0 0 2 1 2 5 4 2 3 1 1 0 1 1 3 1 0 0 1 2 1 2 2 1 1 3 2 2 4 5 4 1 1 6 8 7 10 13 10 4 3 5 7 7 10 10 9 10 11 10 10 11 12 13 12 13 11 10 9 8 8 7 6 4 2 1 0 2 3 3 3 3 2 0 2 3 3 4 4
2 1 2 1 2 1 1 1 2 2 1 2 2 4 2 1 3 1 0 1 2 1 3 2 1 1 1 1 1 2 1 1 3 3 2 5 5 2 1 1 7 4 6 12 12 10 5 1 3 5 8 10 11 10 11 11 11 11 11 11 11 12 12 12 11 9 8 7 7 6 4 4 3 2 2 4 5 5 4 4 4 3 3 4 5 6 7
1 0 1 1 3 1 2 2 0 1 0 1 0 1 0 0 1 1 2 2 2 2 2 0 2 2 1 3 1 3 1 4 3 5 3 3 2 2 2 4 7 5 4 7 8 0 3 4 5 7 8 8 10 11 10 11 12 14 14 13 12 12 12 12 9 8 8 7 5 3 3 2 2 3 4 4 4 7 5 4 5 5 7 8 9 9 9
3 1 1 1 1 1 0 1 1 1 1 3 1 1 2 3 0 1 0 1 3 4 2 2 1 1 2 2 2 2 3 4 4 4 3 3 3 5 4 7 6 11 4 2 3 3 4 5 6 8 9 9 9 9 10 10 11 12 14 15 15 12 11 10 8 7 6 5 4 3 1 1 2 4 5 7 8 5 6 6 8 8 9 10 9 10 11
3 2 3 3 1 1 0 0 2 0 1 3 1 1 1 1 0 2 0 2 1 1 1 2 2 2 2 1 2 3 4 3 4 2 2 6 4 2 1 7 7 7 2 1 4 5 6 6 6 8 8 9 10 11 12 13 12 12 13 14 13 13 10 8 8 6 4 2 2 2 2 3 2 4 5 6 5 6 9 11 10 10 11 10 11 12 11
1 4 1 1 1 1 2 2 3 2 1 2 1 1 2 1 2 1 0 2 3 2 1 2 2 2 2 2 2 3 3 1 2 6 4 4 1 3 5 11 4 1 6 5 6 7 6 6 6 7 8 9 9 13 12 14 14 14 14 13 13 12 9 7 6 6 5 4 2 3 3 3 3 4 5 7 10 14 13 11 11 12 12 13 15 17 12
1 2 0 1 0 1 1 0 0 2 3 2 1 3 2 1 2 2 1 5 3 3 3 3 3 3 2 5 5 1 2 1 4 0 3 4 2 4 5 2 5 6 6 8 8 6 6 5 4 6 6 8 9 12 14 13 13 11 13 12 13 11 10 8 6 5 5 4 4 3 5 5 5 5 6 9 12 13 11 8 7 9 10 9 9 13 14
Wind_Direction
71 69 87 149 153 153 172 172 167 167 165 152 164 143 144 160 134 354 155 154 154 154 171 165 173 191 205 167 197 69 47 125 132 151 210 173 85 102 162 189 167 237 177 176 169 170 196 189 208 191 207 218 209 187 186 177 178 177 200 197 210 70 225 208 243 300 293 303 337 328 310 212 214 245 319 186 202 192 201 211 193 201 196 219 241 250 266
65 75 73 76 89 107 144 175 159 160 161 151 138 145 139 111 119 114 162 157 160 165 177 170 169 193 163 185 182 31 167 159 154 186 192 169 164 168 167 262 222 187 185 169 184 172 202 207 202 216 202 234 208 213 192 175 186 173 190 192 155 201 177 200 216 231 227 246 308 300 333 236 219 202 207 205 202 203 214 66 50 202 210 212 190 241 251
62 59 59 63 72 76 80 92 150 157 159 149 151 141 132 110 58 60 352 168 167 186 188 177 177 181 178 176 187 178 170 219 188 176 189 110 152 122 240 196 155 147 181 192 179 189 196 160 212 216 202 229 200 197 189 193 191 201 180 189 149 214 169 191 214 201 200 196 201 206 227 227 223 229 203 206 197 197 176 222 193 228 201 199 212 239 244
61 64 63 60 60 69 79 91 91 102 127 159 106 143 124 164 149 303 28 24 168 224 35 159 178 179 173 183 199 185 182 332 343 180 187 147 143 136 133 23 91 138 137 192 192 202 212 198 168 197 216 224 232 185 195 196 200 201 190 172 149 212 190 219 218 221 224 227 232 252 188 127 197 202 205 205 208 199 201 204 208 215 212 216 214 223 245
61 59 52 50 58 66 70 74 80 80 76 56 101 54 113 73 132 155 179 72 22 169 178 185 181 190 172 188 177 189 192 153 137 231 187 214 158 120 136 165 166 234 180 191 206 200 202 202 152 204 202 212 225 238 192 194 206 200 195 181 160 140 212 216 219 232 237 226 160 225 161 185 199 197 209 209 207 204 203 205 216 208 220 238 222 234 239
54 58 65 62 55 58 69 78 80 70 64 74 66 89 24 151 220 83 234 142 163 137 217 196 195 196 173 195 164 192 177 167 174 74 287 138 187 142 309 192 223 192 193 184 203 194 208 200 213 190 226 192 282 184 228 196 204 200 213 224 182 167 218 214 211 228 229 232 188 150 95 196 205 217 216 212 210 207 207 214 217 206 210 223 221 213 226
49 50 52 54 58 60 59 75 102 115 111 57 87 95 287 89 88 92 15 104 227 203 179 178 185 180 179 183 179 183 181 188 180 167 163 158 212 190 201 204 205 202 213 197 203 188 193 219 214 197 182 202 173 196 89 260 222 193 183 191 193 146 234 221 219 230 230 227 214 172 171 188 191 220 223 228 225 223 215 217 220 217 225 236 242 237 235
48 46 47 47 49 55 73 96 120 146 112 75 66 49 123 172 140 167 59 61 98 112 118 153 161 177 183 185 196 184 183 180 149 144 163 173 207 181 209 195 192 177 195 209 206 196 200 196 203 193 185 204 195 204 195 148 203 190 200 186 198 198 221 203 208 231 244 241 235 210 210 210 229 207 220 230 230 228 230 233 233 231 235 238 245 247 248
49 47 44 43 46 47 55 70 116 140 120 39 68 29 47 98 7 338 137 116 129 99 124 141 155 154 214 195 186 180 182 181 158 170 226 194 175 185 194 159 144 170 176 224 244 203 167 130 181 160 179 196 197 183 238 168 171 195 201 192 212 204 231 201 199 227 240 228 223 230 220 215 230 233 219 216 224 232 220 224 220 219 220 226 236 243 247
50 48 45 43 43 42 45 49 55 126 156 100 112 86 280 348 329 84 33 94 260 133 109 110 122 173 205 154 182 179 175 160 141 119 211 173 192 172 155 159 144 193 190 209 212 201 164 168 142 161 65 105 83 76 122 48 195 181 204 174 189 191 190 206 192 221 234 231 207 215 220 234 244 223 212 215 223 211 220 240 241 237 231 232 228 237 237
52 48 46 44 43 43 43 43 43 40 93 119 120 127 143 172 132 40 326 112 358 65 132 121 107 165 82 66 115 65 133 153 187 163 178 143 188 183 141 162 163 171 202 210 209 174 174 165 152 157 140 110 99 116 345 347 52 159 200 154 179 172 190 208 176 225 230 229 199 189 205 225 232 189 204 202 212 210 214 220 226 232 223 231 230 240 254
52 51 47 44 43 43 43 43 44 44 51 89 109 108 189 81 58 74 72 111 114 291 89 153 155 155 130 147 100 133 139 145 167 113 137 166 126 122 167 182 182 189 241 152 111 101 95 88 77 70 76 79 53 14 352 330 312 278 312 237 170 181 184 205 189 213 221 178 139 182 221 239 105 257 201 201 214 221 227 234 230 233 233 242 252 258 257
50 53 50 46 45 43 43 43 42 46 48 65 78 86 66 183 116 132 109 98 86 149 116 71 348 99 121 110 86 85 124 81 63 121 102 127 103 124 180 156 174 207 145 137 131 120 105 127 98 116 110 103 9 287 249 249 255 252 246 234 207 175 185 152 210 175 100 170 182 215 240 123 127 201 175 190 196 213 219 240 246 248 239 227 235 240 243
45 49 50 49 48 45 43 42 42 43 42 49 72 76 51 169 121 98 116 101 59 341 92 91 50 102 109 113 121 120 101 80 44 46 97 42 128 160 199 186 179 152 164 136 108 110 76 55 119 115 293 60 359 275 246 200 203 195 222 223 194 258 165 174 207 201 212 169 203 223 353 344 187 176 195 150 183 191 194 226 239 227 229 223 229 240 250
42 44 45 46 49 50 45 42 40 38 42 49 87 60 43 25 55 122 193 93 123 100 335 119 161 99 107 104 138 119 89 140 106 46 293 292 96 194 191 227 118 160 166 134 84 53 139 116 87 130 186 151 193 236 61 220 205 206 205 195 169 174 197 283 197 235 182 218 210 209 216 233 204 220 217 199 192 190 193 198 256 244 231 226 228 235 238
39 40 43 44 47 52 50 48 41 36 31 39 57 60 49 14 323 82 96 121 130 87 341 4 215 123 94 100 142 133 150 124 127 102 18 360 305 325 323 348 325 150 58 72 114 118 130 137 180 154 196 180 225 103 263 176 144 177 164 174 191 231 22 1 193 289 148 209 196 206 226 241 194 227 209 208 212 130 95 163 245 248 206 214 214 235 245
44 43 43 45 43 51 61 54 50 46 40 39 54 41 37 6 20 58 94 61 51 108 319 330 142 99 100 69 61 39 59 126 150 127 109 99 26 289 298 324 328 100 142 87 134 86 101 71 102 128 314 151 119 202 142 63 158 128 132 153 172 176 186 198 228 245 246 213 219 234 201 248 242 202 56 218 140 119 105 217 236 259 170 215 215 232 241
44 47 46 45 45 45 55 59 55 50 47 43 54 58 6 359 17 96 65 87 111 55 283 309 120 95 107 174 127 129 53 48 49 41 86 256 348 22 318 3 35 350 340 148 104 83 108 115 160 182 193 254 172 76 203 175 174 180 161 164 160 187 195 198 214 211 218 211 282 288 306 292 208 205 216 155 128 129 188 209 229 148 153 190 207 228 238
38 43 47 49 49 49 54 62 60 58 48 32 8 38 19 0 354 39 105 72 82 122 265 307 261 83 76 57 99 154 153 126 149 105 131 51 60 208 173 246 197 193 353 147 67 122 140 244 42 113 150 275 61 192 219 86 211 68 125 129 186 182 163 183 210 233 197 184 231 236 249 231 184 276 166 153 121 204 217 230 354 45 174 202 201 221 236
30 36 40 45 46 48 52 56 64 69 71 60 57 79 299 340 0 25 105 113 67 97 319 341 348 91 302 124 109 83 49 33 12 119 150 152 277 54 57 69 318 69 359 60 114 208 113 195 198 182 269 206 239 175 84 246 133 156 171 215 156 180 160 196 190 196 183 155 197 221 244 287 151 122 73 216 160 231 237 319 288 356 233 201 221 229 239
28 30 34 39 42 47 51 53 53 61 75 81 79 85 29 343 350 8 43 118 117 101 1 304 50 62 76 82 91 153 137 146 164 107 197 127 208 86 136 192 204 85 193 132 158 176 153 185 226 179 217 149 254 70 210 134 304 263 149 178 197 190 139 208 211 174 166 183 200 199 210 314 240 149 165 213 215 163 338 28 319 328 13 340 345 315 292
26 27 31 34 37 43 48 51 52 52 67 90 95 90 70 318 339 349 358 66 82 109 154 178 179 157 53 132 147 130 109 119 144 147 137 99 348 117 168 137 170 133 229 115 44 16 5 175 61 38 268 258 19 206 197 79 250 263 294 107 307 220 185 175 173 224 160 198 211 238 209 188 220 175 221 249 284 310 299 239 237 274 300 190 292 288 293
25 25 26 28 32 38 42 47 51 54 55 67 81 72 115 297 333 336 27 71 27 54 21 23 5 28 27 40 252 206 164 226 129 71 113 113 62 3 133 100 339 232 346 40 129 126 152 113 203 176 344 253 186 252 296 169 235 286 181 243 199 294 203 201 77 272 275 282 226 254 273 203 227 243 224 253 283 291 296 299 305 275 271 265 270 269 270
15 22 23 24 26 28 32 41 46 54 58 60 78 108 68 172 274 8 38 66 107 118 21 18 66 34 29 346 327 336 350 357 3 194 204 120 113 346 337 288 165 45 33 336 299 125 205 102 204 126 204 245 87 153 204 273 233 203 328 307 324 269 196 65 161 272 93 251 247 232 245 251 197 220 245 246 253 266 291 295 286 278 280 283 261 232 262
5 11 20 26 24 22 26 30 37 47 52 62 74 68 101 40 347 43 88 86 12 95 137 333 26 157 222 253 232 48 232 196 57 91 51 67 129 135 151 198 172 147 156 182 13 49 32 99 349 73 184 271 98 261 228 148 292 124 226 250 356 306 218 180 218 193 182 246 242 248 248 252 258 233 248 270 272 272 260 240 251 259 263 256 266 265 272
2 1 9 14 23 23 21 19 23 36 51 57 66 85 85 113 301 45 77 71 111 100 100 105 254 303 299 11 264 226 104 138 162 102 171 182 161 156 150 129 57 36 107 118 76 96 129 59 103 175 141 275 57 204 238 201 205 218 190 247 195 213 54 237 181 195 270 292 281 260 292 307 270 251 227 231 234 245 258 258 260 261 259 266 266 223 245
360 1 357 1 14 28 19 18 19 20 41 59 62 68 96 12 347 66 105 135 77 6 32 66 263 294 340 315 261 19 108 119 128 165 194 217 189 88 119 77 108 42 67 31 357 130 109 153 147 218 155 230 130 202 160 341 23 329 280 262 215 323 245 225 31 305 274 248 254 98 326 274 270 249 238 237 236 235 249 265 275 275 275 268 274 287 264
356 356 355 354 0 7 26 19 14 23 47 56 57 54 63 64 335 127 103 83 105 162 169 243 339 267 87 345 288 95 279 126 140 160 175 163 94 111 147 171 147 129 141 124 324 119 148 161 227 201 155 273 75 287 134 209 8 294 241 244 190 205 233 165 195 211 246 247 253 208 225 268 265 261 255 238 249 240 248 255 257 265 264 260 263 277 295
342 347 352 352 353 356 2 17 17 39 53 55 43 34 20 27 3 2 23 99 102 99 106 189 285 24 62 250 329 326 341 127 147 166 177 129 121 129 156 172 170 158 123 120 144 154 167 221 157 154 178 213 113 252 107 183 196 227 232 231 215 232 226 208 225 243 264 266 266 198 190 258 273 272 279 267 242 233 250 255 259 261 265 275 274 268 275
334 339 332 339 349 350 347 349 355 46 88 49 44 45 39 329 348 355 314 354 115 117 89 56 56 261 312 354 305 319 7 42 107 146 156 157 159 162 179 158 198 164 111 163 157 225 225 191 250 242 229 72 141 212 126 207 210 240 246 242 221 233 239 240 238 229 246 252 260 210 206 255 267 275 272 268 264 252 259 269 268 272 275 267 273 284 280
332 324 334 327 328 323 339 344 346 34 72 66 76 47 41 20 299 322 313 13 45 97 96 82 202 331 1 270 350 300 308 212 158 162 205 188 180 178 200 118 305 158 189 239 152 249 247 247 169 257 173 193 187 198 206 190 256 279 246 216 213 214 226 234 237 236 245 260 263 262 303 280 279 282 281 269 265 264 272 270 266 262 266 275 275 272 283
318 317 308 321 321 328 334 358 339 64 63 72 86 144 201 185 223 267 327 33 55 56 78 67 2 359 273 320 286 254 16 96 87 96 337 135 193 172 177 173 200 173 185 162 214 234 233 240 220 254 111 207 178 251 196 219 241 249 256 227 201 218 219 228 237 242 242 251 265 288 276 267 262 252 257 268 286 272 248 261 269 276 275 274 268 267 257
311 311 306 303 328 329 319 327 338 91 185 206 100 93 127 139 141 109 37 24 49 87 103 85 144 281 50 254 319 312 162 42 12 47 301 207 188 113 187 179 159 161 222 195 196 222 221 193 197 240 224 177 167 222 231 229 234 244 252 255 219 219 225 226 234 241 243 246 221 224 243 249 254 261 267 273 274 264 263 266 270 278 291 285 279 278 276
311 303 299 299 293 302 300 313 342 14 34 41 12 307 304 73 115 121 100 81 106 118 80 107 99 76 258 325 49 289 70 178 254 137 321 277 169 92 201 122 194 162 211 193 231 171 279 160 201 232 106 191 216 236 238 239 240 247 254 258 253 236 229 236 239 247 246 247 241 226 243 257 278 319 298 284 278 274 273 282 286 286 272 270 269 263 259
320 308 300 288 284 312 27 51 50 49 99 59 342 271 261 238 172 179 134 104 64 343 50 9 112 54 358 347 112 266 257 96 297 242 133 263 134 153 176 105 205 166 244 140 269 200 220 220 156 178 213 171 195 222 235 241 243 241 247 257 255 250 238 236 239 234 241 246 258 263 263 272 279 278 273 275 275 273 277 271 266 267 275 269 264 266 255
317 313 306 5 48 60 59 41 57 66 19 192 223 253 226 278 288 68 66 79 122 135 93 238 93 170 158 247 281 275 74 18 229 87 220 197 353 252 119 150 208 215 194 154 218 193 225 175 170 238 206 210 215 210 227 225 237 242 239 243 253 250 238 230 247 255 250 253 256 260 259 258 256 258 263 267 272 274 267 270 274 263 257 264 264 263 250
323 51 65 55 40 40 33 216 309 148 194 209 127 78 59 66 34 25 2 9 345 107 151 181 159 219 159 220 307 281 66 319 359 24 325 111 213 222 118 206 229 222 167 210 206 221 235 187 217 239 217 222 229 224 229 235 241 251 255 254 261 267 259 255 249 256 267 262 256 251 244 245 249 249 249 252 259 266 271 262 260 261 260 259 259 258 250
88 68 72 41 54 38 4 311 230 251 280 158 109 54 358 21 89 51 111 63 264 98 285 144 229 182 53 154 233 249 63 284 56 57 301 252 335 310 217 199 235 242 248 218 223 200 247 173 219 220 239 232 240 239 237 237 245 250 254 261 265 269 274 268 255 240 251 263 260 252 248 250 260 262 252 252 251 256 254 252 255 253 254 255 256 252 239
95 72 53 32 94 183 191 229 265 301 46 56 32 80 339 7 77 31 219 165 146 208 231 153 238 153 183 225 240 26 147 279 334 338 290 283 19 287 154 253 233 232 249 247 257 150 235 219 233 226 238 236 242 243 252 278 275 282 323 347 1 345 343 316 314 250 241 241 251 260 251 245 248 255 253 253 253 254 260 264 264 259 254 258 257 242 230
52 77 109 89 163 223 244 284 316 119 77 88 345 97 110 296 135 222 42 67 281 267 110 239 202 142 195 221 237 260 146 138 231 237 196 296 146 206 264 275 276 266 259 233 262 131 207 238 226 231 246 220 232 249 18 338 344 333 344 336 340 336 337 322 303 298 292 285 290 277 273 247 241 245 266 273 281 284 283 274 265 269 263 253 247 224 224
40 86 63 178 234 226 256 272 15 46 65 69 24 359 78 357 236 177 115 225 184 234 61 179 18 44 329 116 168 218 283 86 268 149 181 210 251 119 235 253 262 262 240 236 248 94 239 260 239 236 245 1 334 336 333 348 334 340 335 333 328 329 327 316 302 300 303 293 289 285 277 259 256 252 252 255 267 269 270 281 283 269 268 268 248 244 286
189 173 189 152 146 141 17 32 50 70 12 356 133 224 214 245 33 356 157 169 201 191 319 357 267 171 255 87 201 58 296 197 207 282 234 261 221 187 231 237 231 234 246 205 137 247 223 242 242 248 139 313 321 340 340 330 340 336 331 329 324 320 317 312 306 301 290 285 289 292 293 290 275 268 250 245 251 261 275 280 279 277 267 282 318 300 216
111 95 79 70 41 12 43 59 327 120 157 144 134 234 120 150 222 162 217 112 356 101 262 31 209 345 306 38 326 214 208 342 275 228 217 237 259 150 229 222 225 242 234 116 199 225 239 250 256 257 73 319 352 331 340 317 322 314 316 324 317 314 308 301 298 292 290 279 280 281 279 274 266 259 259 255 265 272 268 316 312 316 331 329 310 296 248
67 57 41 352 63 300 66 149 278 48 337 20 138 193 148 358 303 24 338 270 7 31 324 93 293 87 221 339 124 292 321 253 200 234 263 260 282 239 237 236 228 251 54 270 232 236 240 252 276 80 310 344 309 331 323 330 317 325 321 324 324 312 308 310 306 301 292 281 273 270 270 265 268 285 299 305 340 291 286 8 340 1 337 3 344 326 343
89 18 47 42 48 273 67 277 349 127 199 241 159 198 167 189 227 197 191 252 100 164 29 55 74 50 267 278 22 293 214 265 298 240 246 178 236 222 234 255 235 8 216 245 233 248 245 243 66 292 11 335 331 324 321 318 320 316 316 313 311 320 317 312 310 305 297 294 288 292 274 264 240 242 314 349 337 353 42 195 294 169 205 164 172 107 49
82 162 118 93 67 339 97 178 353 356 275 150 210 195 165 230 158 194 251 158 87 25 63 63 165 97 332 289 127 257 20 289 285 226 251 258 253 235 194 241 58 264 254 250 250 246 251 286 306 316 333 321 321 314 317 310 316 313 315 309 312 311 314 304 300 302 298 300 296 289 285 300 289 293 343 18 29 24 23 8 25 34 188 136 120 101 82
64 13 80 113 97 280 79 153 232 202 184 188 218 171 149 189 194 189 223 102 83 57 87 28 90 200 179 282 22 307 177 279 242 262 251 244 229 279 25 183 231 202 239 245 247 256 266 277 334 342 323 323 316 317 314 313 313 314 304 298 306 305 307 308 300 299 302 305 298 296 300 314 332 349 45 57 35 29 29 39 44 50 82 92 84 78 77
103 246 92 168 225 170 168 241 232 283 341 86 228 211 236 241 64 5 10 56 105 79 91 123 21 348 326 265 155 259 260 206 242 253 215 268 308 283 236 223 241 248 226 245 256 129 275 334 326 321 319 312 312 313 316 314 315 312 311 306 306 309 308 306 307 299 302 300 295 293 302 335 18 48 58 60 54 28 29 46 71 76 79 78 73 72 77
124 99 111 179 196 136 2 319 51 100 306 321 327 47 47 54 254 241 86 73 74 90 68 103 233 46 271 166 161 232 256 208 221 247 165 192 223 233 210 247 228 242 234 157 268 312 307 327 317 313 312 314 310 311 308 311 306 307 312 314 306 296 298 298 295 301 294 292 299 296 332 49 87 97 92 82 66 25 13 53 66 69 77 81 80 82 85
64 9 29 61 63 340 247 53 64 351 312 337 11 348 37 96 287 280 170 83 60 84 303 192 228 210 278 3 224 203 235 201 217 269 276 226 211 233 79 270 235 239 235 30 285 287 312 314 324 312 311 310 311 311 312 311 314 313 312 310 305 309 311 317 315 315 315 321 336 34 76 86 67 90 92 83 81 77 61 55 54 66 69 73 85 87 84
12 111 188 202 134 223 146 181 180 205 269 264 223 242 171 198 205 190 17 111 127 80 64 175 155 158 199 187 255 231 221 138 175 215 211 229 125 145 207 238 255 59 269 277 273 287 299 314 320 307 309 309 311 314 313 313 314 313 316 315 319 332 329 344 355 2 17 26 75 90 61 61 66 89 96 104 96 85 68 45 50 67 71 76 81 84 75
50 56 243 255 108 147 152 117 89 185 209 218 183 247 130 191 244 201 117 96 115 142 200 190 160 176 202 214 226 264 353 43 241 32 308 256 141 188 237 253 299 304 314 309 306 302 306 302 287 292 294 299 307 313 313 313 316 318 324 323 332 347 357 1 1 355 346 6 32 61 84 85 97 104 101 93 93 82 69 69 37 48 62 65 67 65 71